Tracking 26911 objects as of 8-Feb-2023
HD Live streaming from Space Station
objects crossing your sky now

N-1 R/B

Track N-1 R/B now!
10-day predictions


NORAD ID: 10675
Int'l Code: 1978-018B
Perigee: 978.5 km
Apogee: 1,219.2 km
Inclination: 69.4 °
Period: 107.1 minutes
Semi major axis: 7469 km
RCS: 1.3828 m2 (large)
Launch date: February 16, 1978
Source: Japan (JPN)
Launch site: TANEGASHIMA SPACE CENTER (TNSTA)

Note: This is a ROCKET BODY
Your satellite tracking list
Your tracking list is empty




NASA's NSSDC Master Catalog

Two Line Element Set (TLE):
1 10675U 78018B   23038.74544647  .00000019  00000-0  11051-3 0  9991
2 10675  69.3601 156.0226 0161152 341.2580 125.9584 13.44731410207255
Source of the keplerian elements: AFSPC